Weather History for Kill Devil Hills, NC

Change the Weather History Date:

Sunday, December 8, 2013

  Actual Average (KMQI) Record (KMQI)
Temperature  
Mean Temperature 46 °F -  
Max Temperature 50 °F 55 °F 77 °F (1978)
Min Temperature 42 °F 43 °F 28 °F (1984)
Degree Days  
Heating Degree Days 19    
Moisture  
Dew Point 44 °F    
Average Humidity 93    
Maximum Humidity 99    
Minimum Humidity 74    
Precipitation  
Precipitation 0.21 in - - ()
Sea Level Pressure  
Sea Level Pressure 30.33 in    
Wind  
Wind Speed 11 mph (NNE)    
Max Wind Speed 14 mph    
Max Gust Speed 25 mph    
Visibility 5 miles    
Events Rain    
Averages and records for this station are not official NWS values.
T = Trace of Precipitation, MM = Missing Value Source: NWS Daily Summary

Daily Weather History Graph

Daily Weather History Graph

Search for Another Location

Airport:

Trip Planner

Search our weather history database for the weather conditions in past years. The results will help you decide how hot, cold, wet, or windy it might be!

Date:

Astronomy

Dec. 08, 2013 Rise Set
Actual Time 7:01 AM EST 4:48 PM EST
Civil Twilight 6:32 AM EST 5:16 PM EST
Nautical Twilight 6:00 AM EST 5:48 PM EST
Astronomical Twilight 5:29 AM EST 6:19 PM EST
Moon 11:28 AM EST (12/8) 11:25 PM EST (12/8)
Length of Visible Light 10h 44m
Length of Day
9h 47m
Waxing Crescent, 40% of the Moon is Illuminated
Dec 8
Waxing Crescent
Dec 9
First Quarter
Dec 17
Full
Dec 25
Last Quarter
Jan 1
New

Hourly Weather History & Observations

Time (EST) Temp. Windchill Dew Point Humidity Pressure Visibility Wind Dir Wind Speed Gust Speed Precip Events Conditions
12:15 AM 43.9 °F 37.9 °F 36.5 °F 75% 30.40 in 10.0 mi NNE 11.5 mph 19.6 mph N/A   Overcast
12:35 AM 43.7 °F 37.3 °F 36.3 °F 75% 30.40 in 10.0 mi NNE 12.7 mph 21.9 mph N/A   Overcast
12:55 AM 43.9 °F 37.9 °F 36.3 °F 75% 30.40 in 10.0 mi NNE 11.5 mph 19.6 mph N/A   Overcast
1:15 AM 44.1 °F 38.1 °F 36.9 °F 76% 30.40 in 10.0 mi North 11.5 mph 21.9 mph N/A   Overcast
1:35 AM 44.2 °F 39.2 °F 36.9 °F 75% 30.40 in 10.0 mi North 9.2 mph 19.6 mph N/A   Overcast
1:55 AM 44.2 °F 38.4 °F 36.5 °F 74% 30.40 in 10.0 mi NNE 11.5 mph 19.6 mph N/A   Overcast
2:15 AM 44.4 °F 38.6 °F 36.7 °F 74% 30.39 in 10.0 mi NNE 11.5 mph 20.7 mph N/A   Overcast
2:35 AM 44.2 °F 38.8 °F 36.7 °F 75% 30.40 in 10.0 mi NNE 10.4 mph 20.7 mph N/A   Overcast
2:55 AM 44.1 °F 38.1 °F 36.3 °F 74% 30.39 in 10.0 mi NNE 11.5 mph 20.7 mph N/A   Overcast
3:15 AM 44.1 °F 38.1 °F 36.5 °F 75% 30.40 in 10.0 mi North 11.5 mph 20.7 mph N/A   Overcast
3:35 AM 43.7 °F 36.9 °F 37.0 °F 77% 30.39 in 10.0 mi NNE 13.8 mph 20.7 mph N/A   Drizzle
3:55 AM 43.0 °F 37.2 °F 38.1 °F 83% 30.39 in 7.0 mi NNE 10.4 mph 19.6 mph N/A   Drizzle
4:15 AM 42.8 °F 35.8 °F 38.5 °F 85% 30.38 in 10.0 mi NNE 13.8 mph 24.2 mph N/A   Overcast
4:35 AM 43.3 °F 37.2 °F 38.5 °F 83% 30.38 in 10.0 mi NNE 11.5 mph 19.6 mph N/A   Overcast
4:55 AM 43.5 °F 37.5 °F 38.8 °F 84% 30.37 in 10.0 mi NNE 11.5 mph 23.0 mph N/A   Overcast
5:15 AM 43.5 °F 37.9 °F 39.0 °F 84% 30.38 in 10.0 mi NNE 10.4 mph 19.6 mph N/A   Overcast
5:35 AM 43.7 °F 37.3 °F 39.2 °F 84% 30.39 in 5.0 mi NNE 12.7 mph 21.9 mph N/A   Haze
5:55 AM 43.3 °F 37.7 °F 39.9 °F 88% 30.40 in 4.0 mi NNE 10.4 mph 18.4 mph N/A   Overcast
6:15 AM 43.0 °F 36.4 °F 40.3 °F 90% 30.40 in 3.0 mi NNE 12.7 mph 23.0 mph N/A   Drizzle
6:35 AM 42.6 °F 35.6 °F 40.6 °F 93% 30.39 in 3.0 mi NNE 13.8 mph 20.7 mph N/A   Light Drizzle
6:55 AM 42.6 °F 36.8 °F 41.0 °F 94% 30.40 in 5.0 mi NE 10.4 mph 20.7 mph N/A   Overcast
7:15 AM 42.8 °F 36.6 °F 41.2 °F 94% 30.39 in 5.0 mi NNE 11.5 mph 19.6 mph N/A   Overcast
7:35 AM 43.2 °F 37.4 °F 41.4 °F 93% 30.40 in 7.0 mi NNE 10.4 mph 20.7 mph N/A   Overcast
7:55 AM 43.3 °F 38.1 °F 41.9 °F 95% 30.40 in 2.5 mi NNE 9.2 mph 16.1 mph N/A   Overcast
8:15 AM 43.5 °F 37.9 °F 42.3 °F 95% 30.39 in 2.5 mi NNE 10.4 mph 18.4 mph N/A Rain Light Rain
8:35 AM 43.5 °F 37.5 °F 42.6 °F 97% 30.39 in 3.0 mi NNE 11.5 mph 19.6 mph N/A   Light Drizzle
8:55 AM 44.2 °F 38.4 °F 43.3 °F 97% 30.38 in 4.0 mi NNE 11.5 mph 18.4 mph N/A   Light Drizzle
9:15 AM 44.6 °F 38.4 °F 43.7 °F 97% 30.38 in 4.0 mi NNE 12.7 mph 23.0 mph N/A   Light Drizzle
9:35 AM 44.8 °F 39.9 °F 43.9 °F 97% 30.40 in 4.0 mi North 9.2 mph 17.3 mph N/A   Drizzle
9:55 AM 45.1 °F 39.9 °F 44.2 °F 97% 30.40 in 3.0 mi NNE 10.4 mph 21.9 mph 0.01 in Rain Rain
10:15 AM 45.5 °F 39.6 °F 44.6 °F 97% 30.38 in 2.5 mi NNE 12.7 mph 21.9 mph 0.05 in Rain Rain
10:35 AM 45.7 °F 40.2 °F 45.0 °F 97% 30.36 in 5.0 mi NNE 11.5 mph 20.7 mph 0.06 in Rain Rain
10:55 AM 46.2 °F 41.2 °F 45.5 °F 97% 30.37 in 7.0 mi North 10.4 mph 19.6 mph 0.06 in   Overcast
11:15 AM 46.6 °F - 45.7 °F 97% 30.36 in 7.0 mi NNE 11.5 mph 25.3 mph N/A Rain Light Rain
11:35 AM 46.4 °F 41.1 °F 45.5 °F 97% 30.35 in 3.0 mi North 11.5 mph 23.0 mph 0.03 in Rain Rain
11:55 AM 46.2 °F 40.8 °F 45.3 °F 97% 30.34 in 4.0 mi NNE 11.5 mph 21.9 mph 0.05 in Rain Light Rain
12:15 PM 46.6 °F - 45.9 °F 97% 30.32 in 3.0 mi NNE 10.4 mph 19.6 mph 0.01 in Rain Light Rain
12:35 PM 46.8 °F - 46.0 °F 97% 30.32 in 4.0 mi NNE 9.2 mph 17.3 mph 0.01 in Rain Rain
12:55 PM 46.9 °F - 46.2 °F 97% 30.30 in 3.0 mi NNE 10.4 mph 18.4 mph 0.03 in Rain Light Rain
1:15 PM 47.3 °F - 46.6 °F 97% 30.29 in 4.0 mi NNE 10.4 mph 19.6 mph N/A Rain Light Rain
1:35 PM 47.3 °F - 46.8 °F 98% 30.28 in 3.0 mi NNE 10.4 mph 19.6 mph N/A Rain Light Rain
1:55 PM 47.3 °F - 46.8 °F 98% 30.27 in 2.5 mi NNE 10.4 mph 18.4 mph N/A   Drizzle
2:15 PM 47.7 °F - 47.3 °F 99% 30.27 in 2.5 mi North 9.2 mph 20.7 mph 0.01 in Rain Light Rain
2:35 PM 48.2 °F - 47.7 °F 98% 30.29 in 3.0 mi North 11.5 mph 17.3 mph 0.01 in Rain Rain
2:55 PM 47.8 °F - 47.3 °F 98% 30.30 in 2.5 mi North 11.5 mph 25.3 mph 0.04 in Rain Rain
3:15 PM 47.5 °F - 47.1 °F 99% 30.30 in 3.0 mi North 11.5 mph 19.6 mph N/A   Drizzle
3:35 PM 47.3 °F - 46.9 °F 99% 30.28 in 3.0 mi North 13.8 mph 23.0 mph 0.01 in Rain Rain
3:55 PM 47.5 °F - 46.9 °F 98% 30.28 in 4.0 mi NNE 13.8 mph 25.3 mph 0.02 in   Drizzle
4:15 PM 47.5 °F - 46.8 °F 97% 30.27 in 5.0 mi NNE 12.7 mph 19.6 mph N/A   Light Drizzle
4:35 PM 47.8 °F - 47.3 °F 98% 30.26 in 7.0 mi NNE 10.4 mph 20.7 mph N/A   Overcast
4:55 PM 48.4 °F - 48.0 °F 99% 30.25 in 5.0 mi NNE 10.4 mph 18.4 mph N/A   Overcast
5:15 PM 48.9 °F - 48.4 °F 98% 30.26 in 3.0 mi North 5.8 mph - N/A   Overcast
5:35 PM 49.5 °F - 49.1 °F 99% 30.27 in 4.0 mi North 8.1 mph - N/A   Overcast
5:55 PM 50.5 °F - 50.2 °F 99% 30.27 in 5.0 mi NE 6.9 mph - N/A   Overcast
6:15 PM 50.9 °F - 50.4 °F 98% 30.28 in 5.0 mi North 6.9 mph - N/A   Light Drizzle
6:35 PM 50.7 °F - 50.2 °F 98% 30.27 in 4.0 mi NNE 5.8 mph - N/A Rain Light Rain
6:55 PM 50.7 °F - 50.0 °F 97% 30.27 in 5.0 mi North 6.9 mph - N/A   Overcast
7:15 PM 50.4 °F - 50.0 °F 99% 30.27 in 5.0 mi North 5.8 mph - N/A   Overcast
7:35 PM 50.0 °F - 49.5 °F 98% 30.26 in 4.0 mi North 6.9 mph - N/A   Overcast
7:55 PM 50.0 °F - 49.5 °F 98% 30.25 in 4.0 mi NNE 8.1 mph - N/A   Overcast
8:15 PM 50.2 °F - 49.6 °F 98% 30.26 in 5.0 mi NW 8.1 mph - N/A   Overcast
8:35 PM 50.2 °F - 49.8 °F 99% 30.26 in 5.0 mi North 5.8 mph - N/A   Overcast
8:55 PM 50.0 °F - 49.6 °F 99% 30.24 in 5.0 mi NNE 5.8 mph - N/A   Overcast
9:15 PM 48.2 °F - 47.8 °F 99% 30.23 in 3.0 mi North 6.9 mph - N/A   Overcast
9:35 PM 48.9 °F - 48.6 °F 99% 30.23 in 4.0 mi North 3.5 mph - N/A   Overcast
9:55 PM 50.0 °F - 49.6 °F 99% 30.22 in 5.0 mi Calm Calm - N/A   Overcast
10:15 PM 50.2 °F - 50.0 °F 99% 30.22 in 4.0 mi NNW 4.6 mph - N/A   Overcast
10:35 PM 49.5 °F - 49.1 °F 99% 30.22 in 4.0 mi West 4.6 mph - N/A   Overcast
10:55 PM 47.1 °F - 46.6 °F 98% 30.22 in 3.0 mi West 5.8 mph - N/A   Overcast
11:15 PM 46.6 °F - 46.0 °F 98% 30.23 in 0.8 mi West 6.9 mph - N/A   Overcast
11:35 PM 45.5 °F 41.3 °F 45.1 °F 99% 30.24 in 0.8 mi West 8.1 mph - N/A   Overcast
11:55 PM 44.4 °F 40.0 °F 44.1 °F 99% 30.22 in 0.8 mi West 8.1 mph - N/A   Overcast